PWSweather.com
Personal Weather Stations
Station Observations

VeniceIT

Lat: 45.472055, Lon: 12.235221

Elevation: 0

Station Type: TP1080WC

http://meteomarghera.asdasd.it/

High Low Average
Temperature -5866.1°F-3276.7°C -5866.1°F-3276.7°C -5866.1°F-3276.7°C
Dew Point -- -- --
Winds 916.0 mph 1474.2 kmh 916.0 mph 1474.2 kmh 916.0 mph N1474.2 kmh N
Wind Gusts 916.0 mph1474.2 kmh 916.0 mph1474.2 kmh 916.0 mph1474.2 kmh
Humidity - - -
Pressure 30.15 in1021.0 mb 30.07 in1018.3 mb -
Precipitation 0.00 in0.0 mm - -
Hour Temp Dew Point Humidity Winds Wind Gusts Pressure Precip Precip Rate Daily Precip Total
12:05 AM -5866.1°F-3276.7°C -- - 916.0 mph N1474.2 kmh N 916.0 mph1474.2 kmh 30.13 in1020.3 mb 0.00 in0.0 mm 0.00 in0.0 mm 0.00 in0.0 mm
12:35 AM -5866.1°F-3276.7°C -- - 916.0 mph N1474.2 kmh N 916.0 mph1474.2 kmh 30.12 in1020.0 mb 0.00 in0.0 mm 0.00 in0.0 mm 0.00 in0.0 mm
01:05 AM -5866.1°F-3276.7°C -- - 916.0 mph N1474.2 kmh N 916.0 mph1474.2 kmh 30.13 in1020.3 mb 0.00 in0.0 mm 0.00 in0.0 mm 0.00 in0.0 mm
01:35 AM -5866.1°F-3276.7°C -- - 916.0 mph N1474.2 kmh N 916.0 mph1474.2 kmh 30.11 in1019.6 mb 0.00 in0.0 mm 0.00 in0.0 mm 0.00 in0.0 mm
02:05 AM -5866.1°F-3276.7°C -- - 916.0 mph N1474.2 kmh N 916.0 mph1474.2 kmh 30.10 in1019.3 mb 0.00 in0.0 mm 0.00 in0.0 mm 0.00 in0.0 mm
02:35 AM -5866.1°F-3276.7°C -- - 916.0 mph N1474.2 kmh N 916.0 mph1474.2 kmh 30.10 in1019.3 mb 0.00 in0.0 mm 0.00 in0.0 mm 0.00 in0.0 mm
03:05 AM -5866.1°F-3276.7°C -- - 916.0 mph N1474.2 kmh N 916.0 mph1474.2 kmh 30.10 in1019.3 mb 0.00 in0.0 mm 0.00 in0.0 mm 0.00 in0.0 mm
03:35 AM -5866.1°F-3276.7°C -- - 916.0 mph N1474.2 kmh N 916.0 mph1474.2 kmh 30.11 in1019.6 mb 0.00 in0.0 mm 0.00 in0.0 mm 0.00 in0.0 mm
04:05 AM -5866.1°F-3276.7°C -- - 916.0 mph N1474.2 kmh N 916.0 mph1474.2 kmh 30.11 in1019.6 mb 0.00 in0.0 mm 0.00 in0.0 mm 0.00 in0.0 mm
04:35 AM -5866.1°F-3276.7°C -- - 916.0 mph N1474.2 kmh N 916.0 mph1474.2 kmh 30.11 in1019.6 mb 0.00 in0.0 mm 0.00 in0.0 mm 0.00 in0.0 mm
05:05 AM -5866.1°F-3276.7°C -- - 916.0 mph N1474.2 kmh N 916.0 mph1474.2 kmh 30.11 in1019.6 mb 0.00 in0.0 mm 0.00 in0.0 mm 0.00 in0.0 mm
05:35 AM -5866.1°F-3276.7°C -- - 916.0 mph N1474.2 kmh N 916.0 mph1474.2 kmh 30.11 in1019.6 mb 0.00 in0.0 mm 0.00 in0.0 mm 0.00 in0.0 mm
06:05 AM -5866.1°F-3276.7°C -- - 916.0 mph N1474.2 kmh N 916.0 mph1474.2 kmh 30.10 in1019.3 mb 0.00 in0.0 mm 0.00 in0.0 mm 0.00 in0.0 mm
06:35 AM -5866.1°F-3276.7°C -- - 916.0 mph N1474.2 kmh N 916.0 mph1474.2 kmh 30.10 in1019.3 mb 0.00 in0.0 mm 0.00 in0.0 mm 0.00 in0.0 mm
07:05 AM -5866.1°F-3276.7°C -- - 916.0 mph N1474.2 kmh N 916.0 mph1474.2 kmh 30.10 in1019.3 mb 0.00 in0.0 mm 0.00 in0.0 mm 0.00 in0.0 mm
07:35 AM -5866.1°F-3276.7°C -- - 916.0 mph N1474.2 kmh N 916.0 mph1474.2 kmh 30.11 in1019.6 mb 0.00 in0.0 mm 0.00 in0.0 mm 0.00 in0.0 mm
08:05 AM -5866.1°F-3276.7°C -- - 916.0 mph N1474.2 kmh N 916.0 mph1474.2 kmh 30.12 in1020.0 mb 0.00 in0.0 mm 0.00 in0.0 mm 0.00 in0.0 mm
08:35 AM -5866.1°F-3276.7°C -- - 916.0 mph N1474.2 kmh N 916.0 mph1474.2 kmh 30.13 in1020.3 mb 0.00 in0.0 mm 0.00 in0.0 mm 0.00 in0.0 mm
09:05 AM -5866.1°F-3276.7°C -- - 916.0 mph N1474.2 kmh N 916.0 mph1474.2 kmh 30.13 in1020.3 mb 0.00 in0.0 mm 0.00 in0.0 mm 0.00 in0.0 mm
09:35 AM -5866.1°F-3276.7°C -- - 916.0 mph N1474.2 kmh N 916.0 mph1474.2 kmh 30.15 in1021.0 mb 0.00 in0.0 mm 0.00 in0.0 mm 0.00 in0.0 mm
10:05 AM -5866.1°F-3276.7°C -- - 916.0 mph N1474.2 kmh N 916.0 mph1474.2 kmh 30.15 in1021.0 mb 0.00 in0.0 mm 0.00 in0.0 mm 0.00 in0.0 mm
10:35 AM -5866.1°F-3276.7°C -- - 916.0 mph N1474.2 kmh N 916.0 mph1474.2 kmh 30.15 in1021.0 mb 0.00 in0.0 mm 0.00 in0.0 mm 0.00 in0.0 mm
11:05 AM -5866.1°F-3276.7°C -- - 916.0 mph N1474.2 kmh N 916.0 mph1474.2 kmh 30.14 in1020.7 mb 0.00 in0.0 mm 0.00 in0.0 mm 0.00 in0.0 mm
11:35 AM -5866.1°F-3276.7°C -- - 916.0 mph N1474.2 kmh N 916.0 mph1474.2 kmh 30.13 in1020.3 mb 0.00 in0.0 mm 0.00 in0.0 mm 0.00 in0.0 mm
12:05 PM -5866.1°F-3276.7°C -- - 916.0 mph N1474.2 kmh N 916.0 mph1474.2 kmh 30.12 in1020.0 mb 0.00 in0.0 mm 0.00 in0.0 mm 0.00 in0.0 mm
12:35 PM -5866.1°F-3276.7°C -- - 916.0 mph N1474.2 kmh N 916.0 mph1474.2 kmh 30.11 in1019.6 mb 0.00 in0.0 mm 0.00 in0.0 mm 0.00 in0.0 mm
01:05 PM -5866.1°F-3276.7°C -- - 916.0 mph N1474.2 kmh N 916.0 mph1474.2 kmh 30.10 in1019.3 mb 0.00 in0.0 mm 0.00 in0.0 mm 0.00 in0.0 mm
01:35 PM -5866.1°F-3276.7°C -- - 916.0 mph N1474.2 kmh N 916.0 mph1474.2 kmh 30.09 in1019.0 mb 0.00 in0.0 mm 0.00 in0.0 mm 0.00 in0.0 mm
02:05 PM -5866.1°F-3276.7°C -- - 916.0 mph N1474.2 kmh N 916.0 mph1474.2 kmh 30.09 in1019.0 mb 0.00 in0.0 mm 0.00 in0.0 mm 0.00 in0.0 mm
02:35 PM -5866.1°F-3276.7°C -- - 916.0 mph N1474.2 kmh N 916.0 mph1474.2 kmh 30.08 in1018.6 mb 0.00 in0.0 mm 0.00 in0.0 mm 0.00 in0.0 mm
03:05 PM -5866.1°F-3276.7°C -- - 916.0 mph N1474.2 kmh N 916.0 mph1474.2 kmh 30.07 in1018.3 mb 0.00 in0.0 mm 0.00 in0.0 mm 0.00 in0.0 mm
03:35 PM -5866.1°F-3276.7°C -- - 916.0 mph N1474.2 kmh N 916.0 mph1474.2 kmh 30.07 in1018.3 mb 0.00 in0.0 mm 0.00 in0.0 mm 0.00 in0.0 mm
04:05 PM -5866.1°F-3276.7°C -- - 916.0 mph N1474.2 kmh N 916.0 mph1474.2 kmh 30.07 in1018.3 mb 0.00 in0.0 mm 0.00 in0.0 mm 0.00 in0.0 mm
04:35 PM -5866.1°F-3276.7°C -- - 916.0 mph N1474.2 kmh N 916.0 mph1474.2 kmh 30.07 in1018.3 mb 0.00 in0.0 mm 0.00 in0.0 mm 0.00 in0.0 mm
05:05 PM -5866.1°F-3276.7°C -- - 916.0 mph N1474.2 kmh N 916.0 mph1474.2 kmh 30.07 in1018.3 mb 0.00 in0.0 mm 0.00 in0.0 mm 0.00 in0.0 mm
05:35 PM -5866.1°F-3276.7°C -- - 916.0 mph N1474.2 kmh N 916.0 mph1474.2 kmh 30.07 in1018.3 mb 0.00 in0.0 mm 0.00 in0.0 mm 0.00 in0.0 mm
06:05 PM -5866.1°F-3276.7°C -- - 916.0 mph N1474.2 kmh N 916.0 mph1474.2 kmh 30.08 in1018.6 mb 0.00 in0.0 mm 0.00 in0.0 mm 0.00 in0.0 mm
06:35 PM -5866.1°F-3276.7°C -- - 916.0 mph N1474.2 kmh N 916.0 mph1474.2 kmh 30.09 in1019.0 mb 0.00 in0.0 mm 0.00 in0.0 mm 0.00 in0.0 mm
07:05 PM -5866.1°F-3276.7°C -- - 916.0 mph N1474.2 kmh N 916.0 mph1474.2 kmh 30.08 in1018.6 mb 0.00 in0.0 mm 0.00 in0.0 mm 0.00 in0.0 mm
07:35 PM -5866.1°F-3276.7°C -- - 916.0 mph N1474.2 kmh N 916.0 mph1474.2 kmh 30.07 in1018.3 mb 0.00 in0.0 mm 0.00 in0.0 mm 0.00 in0.0 mm
08:05 PM -5866.1°F-3276.7°C -- - 916.0 mph N1474.2 kmh N 916.0 mph1474.2 kmh 30.08 in1018.6 mb 0.00 in0.0 mm 0.00 in0.0 mm 0.00 in0.0 mm
08:35 PM -5866.1°F-3276.7°C -- - 916.0 mph N1474.2 kmh N 916.0 mph1474.2 kmh 30.08 in1018.6 mb 0.00 in0.0 mm 0.00 in0.0 mm 0.00 in0.0 mm
09:05 PM -5866.1°F-3276.7°C -- - 916.0 mph N1474.2 kmh N 916.0 mph1474.2 kmh 30.08 in1018.6 mb 0.00 in0.0 mm 0.00 in0.0 mm 0.00 in0.0 mm
09:35 PM -5866.1°F-3276.7°C -- - 916.0 mph N1474.2 kmh N 916.0 mph1474.2 kmh 30.08 in1018.6 mb 0.00 in0.0 mm 0.00 in0.0 mm 0.00 in0.0 mm
10:05 PM -5866.1°F-3276.7°C -- - 916.0 mph N1474.2 kmh N 916.0 mph1474.2 kmh 30.08 in1018.6 mb 0.00 in0.0 mm 0.00 in0.0 mm 0.00 in0.0 mm
10:35 PM -5866.1°F-3276.7°C -- - 916.0 mph N1474.2 kmh N 916.0 mph1474.2 kmh 30.08 in1018.6 mb 0.00 in0.0 mm 0.00 in0.0 mm 0.00 in0.0 mm
11:05 PM -5866.1°F-3276.7°C -- - 916.0 mph N1474.2 kmh N 916.0 mph1474.2 kmh 30.08 in1018.6 mb 0.00 in0.0 mm 0.00 in0.0 mm 0.00 in0.0 mm
11:35 PM -5866.1°F-3276.7°C -- - 916.0 mph N1474.2 kmh N 916.0 mph1474.2 kmh 30.07 in1018.3 mb 0.00 in0.0 mm 0.00 in0.0 mm 0.00 in0.0 mm